McCook, NE

8:17 PM CDT on June 26, 2017 (GMT -0500)
McCook Municipal

Weather History for KMCK - November, 2012

Change the Weather History Date:

Saturday, November 3, 2012

  Actual Average Record
Temperature  
Mean Temperature 46 °F 44 °F  
Max Temperature 65 °F 59 °F 85 °F (1909)
Min Temperature 27 °F 30 °F -2 °F (1991)
Degree Days  
Heating Degree Days 19    
Moisture  
Dew Point 31 °F    
Average Humidity 66    
Maximum Humidity 92    
Minimum Humidity 29    
Precipitation  
Precipitation 0.00 in 0.05 in 0.85 in (1990)
Month to date precipitation 0.00 0.13  
Year to date precipitation 8.09 21.07  
Sea Level Pressure  
Sea Level Pressure 30.21 in    
Wind  
Wind Speed 5 mph (SW)    
Max Wind Speed 10 mph    
Max Gust Speed 16 mph    
Visibility 10 miles    
Events      
T = Trace of Precipitation, MM = Missing Value Source: NWS Daily Summary

Daily Weather History Graph

Daily Weather History Graph

Search for Another Location

Airport or City:

Trip Planner

Search our weather history database for the weather conditions in past years. The results will help you decide how hot, cold, wet, or windy it might be!

Date:

Astronomy

Nov. 03, 2012 Rise Set
Actual Time 8:14 AM CDT 6:36 PM CDT
Civil Twilight 7:46 AM CDT 7:04 PM CDT
Nautical Twilight 7:14 AM CDT 7:37 PM CDT
Astronomical Twilight 6:42 AM CDT 8:08 PM CDT
Moon 10:19 PM CDT (11/3) 12:20 PM CDT (11/3)
Length of Visible Light 11h 18m
Length of Day
10h 21m
Waning Gibbous, 80% of the Moon is Illuminated
Nov 3
Waning Gibbous
Nov 6
Last Quarter
Nov 13
New
Nov 20
First Quarter
Nov 28
Full

Hourly Weather History & Observations

Time (CDT) Temp. Windchill Dew Point Humidity Pressure Visibility Wind Dir Wind Speed Gust Speed Precip Events Conditions
12:53 AM 30.9 °F 26.2 °F 28.9 °F 92% 30.19 in 10.0 mi WNW 4.6 mph - N/A   Clear
1:53 AM 30.0 °F 24.1 °F 28.0 °F 92% 30.20 in 10.0 mi West 5.8 mph - N/A   Clear
2:53 AM 28.9 °F 22.8 °F 26.1 °F 89% 30.20 in 10.0 mi West 5.8 mph - N/A   Unknown
3:53 AM 28.0 °F 22.8 °F 26.1 °F 92% 30.21 in 10.0 mi SW 4.6 mph - N/A   Clear
4:53 AM 28.0 °F 20.8 °F 26.1 °F 92% 30.22 in 10.0 mi West 6.9 mph - N/A   Clear
5:53 AM 28.0 °F 20.8 °F 26.1 °F 92% 30.23 in 9.0 mi WSW 6.9 mph - N/A   Clear
6:53 AM 28.9 °F 21.9 °F 27.0 °F 92% 30.24 in 10.0 mi West 6.9 mph - N/A   Clear
7:53 AM 28.9 °F 25.2 °F 26.1 °F 89% 30.25 in 10.0 mi West 3.5 mph - N/A   Clear
8:53 AM 28.9 °F 23.9 °F 27.0 °F 92% 30.28 in 8.0 mi WSW 4.6 mph - N/A   Clear
9:53 AM 36.0 °F 29.6 °F 32.0 °F 86% 30.29 in 10.0 mi WSW 8.1 mph - N/A   Clear
10:53 AM 43.0 °F - 35.1 °F 74% 30.27 in 10.0 mi Calm Calm - N/A   Clear
11:53 AM 50.0 °F - 37.0 °F 61% 30.26 in 10.0 mi Calm Calm - N/A   Clear
12:53 PM 57.0 °F - 37.0 °F 47% 30.25 in 10.0 mi WSW 3.5 mph - N/A   Clear
1:53 PM 59.0 °F - 36.0 °F 42% 30.21 in 10.0 mi Calm Calm - N/A   Clear
2:53 PM 63.0 °F - 35.1 °F 35% 30.18 in 10.0 mi Calm Calm - N/A   Clear
3:53 PM 64.0 °F - 34.0 °F 33% 30.16 in 10.0 mi South 8.1 mph - N/A   Clear
4:53 PM 64.9 °F - 32.0 °F 29% 30.14 in 10.0 mi SSE 6.9 mph 16.1 mph N/A   Clear
5:53 PM 61.0 °F - 32.0 °F 34% 30.15 in 10.0 mi South 8.1 mph - N/A   Clear
6:53 PM 55.0 °F - 33.1 °F 43% 30.16 in 10.0 mi SSE 8.1 mph - N/A   Clear
7:53 PM 52.0 °F - 33.1 °F 49% 30.18 in 10.0 mi SE 9.2 mph - N/A   Clear
8:53 PM 50.0 °F - 34.0 °F 54% 30.17 in 10.0 mi SSE 10.4 mph - N/A   Clear
9:53 PM 48.9 °F - 34.0 °F 56% 30.17 in 10.0 mi SSE 9.2 mph - N/A   Clear
10:53 PM 48.0 °F - 34.0 °F 58% 30.17 in 10.0 mi South 6.9 mph - N/A   Clear
11:53 PM 45.0 °F 40.1 °F 34.0 °F 65% 30.15 in 10.0 mi South 9.2 mph - N/A   Clear